NOAA 16 DEB, 41236

Orbit data source: Space-Track

NOAA 16 DEB, 41236 is space debris in SSO originally from a launch on Thu, 21 Sep 2000 UTC launched from the Air Force Western Test Range (AFWTR). Debris objects in space refer to the collection of defunct objects orbiting the Earth. Examples of debris include non-operational satellites, rocket bodies, and fragments generated from explosions, collisions, or faulty payload assembly.

Loading next visibility...
Identifier
41236, 2000-055ER
Orbit
SSO
Country
Flag of USUS
Related business
Manufacturer
Unknown
Mission
Spacecraft
Bus & Motor
Unknown
Mass
Unknown
Launch date (UTC)
Icon of a cake. It is the launch day of the satellite!2000-09-21 (26 years ago)
Launch vehicle
Unknown
Launch site
Air Force Western Test Range (AFWTR)
Object type
Payload
Rocket body
Debris
Shape & HBR
Unknown shape, 0.1 m
Radar Cross Section
Medium (>0.1 m² and <1 m²)

Expand to show TLE details & history
Last TLE update: 1 day ago

TLE from 1 day ago
0 NOAA 16 DEB
1 41236U 00055ER  26263.47271395  .00003623  00000-0  90546-3 0  9994
2 41236  99.0436 167.1500 0028307 180.7331 179.3825 14.51963846561567
Epoch: 2026-09-20T11:20Z
TLE epoch observation values (Epoch: 2026-09-20T11:20:42.485Z)
Latitude
-0.00003°
Longitude
-2.39342°
Altitude
742.282 km
Speed
7.473 km/s
True Right ascension
11h 08m 36s
True Declination
0° 00' 00"
Sunlit
Object was in daylight at epoch
Visualization orbit readout
Latitude
Unknown
Longitude
Unknown
Altitude
Unknown
Speed
Unknown
Apparent Right ascension
Unknown
Apparent Declination
Unknown
Sunlit
N/A
Visualization observer readout
Local Sidereal Time
06:56:39
Azimuth
Unknown
Elevation
Unknown
Doppler factor
Unknown
Orbital elements
Apogee altitude
736.457 km
Perigee altitude
696.292 km
Semi-major axis
7,094.511 km
Eccentricity
0.00283
Inclination
99.0436°
RAAN
167.15°
Arg. of periapsis
180.7331°
True anomaly
179.38598°
Mean anomaly
179.3825°
Eccentric anomaly
179.38424°
Mean motion
3.63211 °/min
Orbital period
99.12 mins
BSTAR
0.00090546
Loading maneuver chart data...
Computing Atmospheric mass density...

Documentation

Showing up to 5 results
|